This demonstration page uses our WeatherBlox Daily Observations layout. Learn more.

Left ArrowRight Arrow

39.51506, -84.39828

Hourly Observations for June 22, 2022

Temp ( °F °C ) Dew Point ( °F °C ) Humidity (%) Winds ( mph kmh ) Pressure ( in mb ) Visibility ( mi km ) Precip ( " mm )
12:15 am 00:15 Clear 67 19.2 66 18.9 98 98 Calm 30.08 1019 7 11 0.00 0.00
12:35 am 00:35 Clear 67 19.4 66 18.9 97 97 Calm 30.08 1018 10 16 0.00 0.00
12:55 am 00:55 Clear 64 18 64 18 100 100 Calm 30.08 1019 10 16 0.00 0.00
1:15 am 01:15 Clear 65 18.5 65 18.4 99 99 Calm 30.08 1019 10 16 0.00 0.00
1:35 am 01:35 Clear 66 19 N/A N/A Calm 30.08 1019 10 16 0.00 0.00
1:55 am 01:55 Clear 64 18 N/A N/A Calm 30.07 1018 10 16 0.00 0.00
2:15 am 02:15 Clear 64 18 N/A N/A Calm 30.07 1018 10 16 0.00 0.00
2:35 am 02:35 Clear 64 18 N/A N/A Calm 30.07 1018 10 16 0.00 0.00
2:55 am 02:55 Clear 63 17 N/A N/A Calm 30.07 1018 10 16 0.00 0.00
3:15 am 03:15 Clear 63 17 N/A N/A Calm 30.06 1018 10 16 0.00 0.00
3:35 am 03:35 Clear 64 18 N/A N/A Calm 30.05 1018 10 16 0.00 0.00
3:55 am 03:55 Clear 64 18 N/A N/A Calm 30.06 1018 10 16 0.00 0.00
4:15 am 04:15 Clear with Mist and Fog 64 18 N/A N/A Calm 30.06 1018 3 4 0.00 0.00
4:35 am 04:35 Clear with Mist and Fog 64 18 N/A N/A Calm 30.06 1018 4 6 0.00 0.00
4:55 am 04:55 Hazy 63 17 N/A N/A SW 3 6 30.06 1018 5 8 0.00 0.00
5:15 am 05:15 Clear 63 17 N/A N/A SW 5 7 30.05 1018 7 11 0.00 0.00
5:35 am 05:35 Clear 64 18 N/A N/A SW 5 7 30.05 1018 10 16 0.00 0.00
5:55 am 05:55 Clear 64 18 N/A N/A Calm 30.05 1018 7 11 0.00 0.00
6:15 am 06:15 Sunny 64 18 N/A N/A WSW 3 6 30.05 1018 10 16 0.00 0.00
6:35 am 06:35 Sunny 64 18 N/A N/A WSW 3 6 30.05 1018 7 11 0.00 0.00
6:55 am 06:55 Sunny 66 19 N/A N/A WSW 3 6 30.05 1018 10 16 0.00 0.00
7:15 am 07:15 Sunny 68 20 N/A N/A SW 5 7 30.04 1017 10 16 0.00 0.00
7:35 am 07:35 Sunny 71 21.5 67 19.7 90 90 SW 5 7 30.04 1017 10 16 0.00 0.00
7:55 am 07:55 Sunny 72 22.3 67 19.6 85 85 SSW 6 9 30.04 1017 10 16 0.00 0.00
8:15 am 08:15 Sunny 74 23.4 67 19.2 77 77 S 6 9 30.03 1017 10 16 0.00 0.00
8:35 am 08:35 Sunny 75 24 66 19 74 74 S 5 7 30.03 1017 10 16 0.00 0.00
8:55 am 08:55 Sunny 78 25.6 67 19.7 70 70 S 5 7 30.01 1016 10 16 0.00 0.00
9:15 am 09:15 Sunny 80 26.6 68 20 67 67 SSW 5 7 30.02 1017 10 16 0.00 0.00
9:35 am 09:35 Sunny 83 28.3 69 20.7 63 63 WNW 5 7 30.02 1016 10 16 0.00 0.00
9:55 am 09:55 Sunny 85 29.3 70 21.1 61 61 NW 6 9 30.00 1016 10 16 0.00 0.00
10:15 am 10:15 Sunny 86 30 71 21.4 60 60 W 7 11 29.99 1016 10 16 0.00 0.00
10:35 am 10:35 Sunny 87 30.5 70 21.3 58 58 W 7 11 29.99 1016 10 16 0.00 0.00
10:55 am 10:55 Sunny 88 30.9 72 22.1 59 59 WNW 5 7 29.99 1016 10 16 0.00 0.00
11:15 am 11:15 Sunny 88 31.1 72 22.2 59 59 WNW 7 11 29.99 1016 10 16 0.00 0.00
11:35 am 11:35 Sunny 89 31.5 71 21.7 56 56 W 6 9 29.98 1015 10 16 0.00 0.00
11:55 am 11:55 Sunny 90 32.2 72 22.1 55 55 NNW 7 11 29.98 1015 10 16 0.00 0.00
12:15 pm 12:15 Sunny 90 32.3 72 22.4 56 56 W 7 11 29.97 1015 10 16 0.00 0.00
12:35 pm 12:35 Sunny 91 32.9 73 22.5 54 54 W 5 7 29.97 1015 10 16 0.00 0.00
12:55 pm 12:55 Sunny 92 33.1 72 22 52 52 W 7 11 29.97 1015 10 16 0.00 0.00
1:15 pm 13:15 Partly Cloudy 91 32.9 72 22.3 54 54 WSW 8 13 29.96 1014 10 16 0.00 0.00
1:35 pm 13:35 Mostly Cloudy 93 33.7 72 22 50 50 W 6 9 29.95 1014 10 16 0.00 0.00
1:55 pm 13:55 Mostly Cloudy 92 33.5 73 22.5 53 53 W 6 9 29.95 1014 10 16 0.00 0.00
2:15 pm 14:15 Mostly Cloudy 94 34.5 72 22.1 48 48 W 7 11 29.94 1014 10 16 0.00 0.00
2:35 pm 14:35 Mostly Cloudy 95 34.8 73 22.6 49 49 WSW 12 19 29.93 1014 10 16 0.00 0.00
2:55 pm 14:55 Partly Cloudy 93 34.1 73 22.5 51 51 W 12 19 29.92 1013 10 16 0.00 0.00
3:15 pm 15:15 Partly Cloudy 92 33.2 73 22.7 54 54 WSW 9 15 29.91 1013 10 16 0.00 0.00
3:35 pm 15:35 Partly Cloudy with Thunderstorms 90 32 73 23 59 59 W 10 17 29.92 1013 10 16 0.00 0.00
3:55 pm 15:55 Partly Cloudy with Thunderstorms 81 27 65 18.6 60 60 SW 15 24 29.92 1013 10 16 0.00 0.00
4:15 pm 16:15 Mostly Cloudy with Thunderstorms 78 25.8 72 22 80 80 NE 6 9 29.92 1013 10 16 0.00 0.00
4:35 pm 16:35 Mostly Cloudy 80 26.7 74 23.3 82 82 SW 6 9 29.92 1013 10 16 0.00 0.00
4:55 pm 16:55 Partly Cloudy 81 27.4 69 20.8 67 67 SSW 12 19 29.91 1013 10 16 0.00 0.00
5:15 pm 17:15 Partly Cloudy 79 26 69 20.8 73 73 SSW 7 11 29.91 1013 10 16 0.00 0.00
5:35 pm 17:35 Sunny 79 26 71 21.6 77 77 SSE 3 6 29.91 1013 10 16 0.00 0.00
5:55 pm 17:55 Partly Cloudy 79 26.3 71 21.6 75 75 S 5 7 29.91 1013 10 16 0.00 0.00
6:15 pm 18:15 Partly Cloudy 79 26.3 71 21.9 77 77 S 9 15 29.93 1014 10 16 0.00 0.00
6:35 pm 18:35 Mostly Cloudy 79 26 71 21.9 78 78 SW 9 15 29.93 1014 10 16 0.00 0.00
6:55 pm 18:55 Partly Cloudy 78 25.7 73 22.5 83 83 SW 7 11 29.93 1014 10 16 0.00 0.00
7:15 pm 19:15 Sunny 77 25.2 71 21.5 80 80 SSW 10 17 29.94 1014 10 16 0.00 0.00
7:35 pm 19:35 Sunny 77 25.2 72 22.2 84 84 SSW 7 11 29.94 1014 10 16 0.00 0.00
7:55 pm 19:55 Partly Cloudy 78 25.4 72 22 82 82 S 9 15 29.95 1014 10 16 0.00 0.00
8:15 pm 20:15 Mostly Cloudy 77 25 72 22.3 85 85 SSW 7 11 29.94 1014 10 16 0.00 0.00
8:35 pm 20:35 Mostly Cloudy 77 25 72 22.4 86 86 SSW 7 11 29.94 1014 10 16 0.00 0.00
8:55 pm 20:55 Partly Cloudy 75 24.1 73 22.6 91 91 SSW 7 11 29.95 1014 10 16 0.00 0.00
9:15 pm 21:15 Mostly Cloudy 74 23.6 73 22.5 94 94 SSW 5 7 29.94 1014 10 16 0.00 0.00
9:35 pm 21:35 Mostly Cloudy 75 23.7 71 21.7 89 89 NNW 5 7 29.95 1014 10 16 0.00 0.00
9:55 pm 21:55 Mostly Cloudy 76 24.7 62 16.6 61 61 N 5 7 29.94 1014 10 16 0.00 0.00
10:15 pm 22:15 Partly Cloudy 77 24.8 56 13.6 50 50 NW 6 9 29.94 1014 10 16 0.00 0.00
10:35 pm 22:35 Clear 76 24.5 53 11.5 44 44 NW 6 9 29.94 1014 10 16 0.00 0.00
10:55 pm 22:55 Clear 76 24.3 52 11.3 44 44 NNW 7 11 29.94 1014 10 16 0.00 0.00
11:15 pm 23:15 Clear 74 23.2 54 12.1 50 50 N 5 7 29.96 1014 10 16 0.00 0.00
11:35 pm 23:35 Clear 73 22.9 54 12.1 51 51 N 6 9 29.97 1015 10 16 0.00 0.00
11:55 pm 23:55 Clear 72 22.4 54 12.1 52 52 NNW 6 9 29.97 1015 10 16 0.00 0.00

Powered by AerisWeather